Погода в Луисвилле

США     38°15′16″N   85°46′05″W
темп.,
°C
ветер,
м/с
пор.,
м/с
влажн.,
%
обл.,
%
осадки,
мм/ч
давл.,
гПа
погр.,
м
26 февраля, пт
пт2601:00+3всв376392 0.0 1027281
04:00+2всв396768 0.0 1026371
07:00+2в4126084 0.0 1024518
10:00+5вюв3844100 0.0 1023582
13:00+7вюв3750100 0.0 1021609
16:00+6вюв3677100 0.0 1017409
19:00+6юв3894100 1.0 1017303
22:00+6ююв2798100 0.4 1016272
27 февраля, сб
сб2701:00+7ююв31097100 0.4 1013260
04:00+8юз2498100 0.1 1012124
07:00+8зюз2699100 0.1 1015177
10:00+9зсз2497100 0.0 1017181
13:00+11ююз2478100 0.0 1019517
16:00+13ююз2473100 0.0 1017658
19:00+12юв1285100 0.0 101823
22:00+11вюв2497100 0.0 1017114
28 февраля, вс
вс2801:00+11ю2499100 1.3 1014107
04:00+12юз2299100 16.1 101241
07:00+12юв1299100 33.4 101267
10:00+12ююв2598100 23.4 101299
13:00+14зюз2798100 23.5 1012305
16:00+17зсз4874100 0.2 10111103
19:00+12сз4954100 0.2 1015657
22:00+10ссз3656100 0.0 1018741
1 марта, пн
пн101:00+7ссз3571100 0.1 1019611
04:00+6с2570100 0.2 1019626
07:00+5сз3577100 0.3 1021454
10:00+5зсз2459100 0.0 1023454
13:00+9зсз483193 0.0 10221189
16:00+10зсз611330 0.0 10222203
19:00+6ссз595213 0.0 10251216
22:00+2с69560 0.0 1029773
2 марта, вт
вт201:00−2ссв59510 0.0 1032572
04:00−3св36430 0.0 1034599
07:00−4св36440 0.0 1034522
10:00−1в35330 0.0 1034563
13:00+4юв24200 0.0 1032768
16:00+8ю23180 0.0 10281010
19:00+5ююз12280 0.0 102722
22:00+4ююз22400 0.0 102782